Probability
10 13 10 10 6 6 3 3 0 0 0 0 0 0 3 6 3 6 45 84 87 90 87 77 77 74 58 65 71 68 74 55 61 65 71 48 48 42 42 29 19 19 23
6 10 6 3 10 10 6 3 0 0 0 0 0 0 0 6 3 6 32 68 87 90 94 94 77 65 61 55 61 71 65 65 71 77 68 61 55 58 55 52 23 29 26
19 16 19 13 13 10 3 0 3 0 0 0 0 0 0 0 3 10 19 26 48 87 90 90 81 81 71 55 45 58 65 55 61 61 61 65 61 58 55 58 52 55 48
19 16 16 16 10 13 3 6 0 0 0 0 0 0 0 0 3 6 10 16 23 29 55 71 77 81 65 58 48 52 55 58 68 61 58 58 55 52 55 55 48 45 29
32 16 16 16 16 6 6 6 3 0 0 0 0 0 0 0 3 6 6 6 6 6 13 42 71 61 58 58 58 52 55 58 58 55 48 48 45 52 42 52 45 42 29
32 19 19 19 10 6 3 3 3 0 0 0 0 0 0 0 0 3 6 6 3 6 6 10 26 35 61 61 65 61 58 52 52 52 52 45 42 48 42 35 39 39 35
32 23 23 16 16 13 3 3 0 3 0 0 0 0 0 0 0 0 0 3 3 6 3 3 3 6 13 35 55 58 52 48 52 48 52 48 48 48 39 42 32 29 35
26 23 19 23 16 10 10 6 0 3 0 0 0 0 0 0 0 0 0 0 0 3 10 3 0 0 0 3 10 39 45 48 45 35 48 58 52 45 42 39 32 29 26
26 23 16 16 19 13 6 3 0 3 0 0 0 0 0 0 0 0 0 0 0 0 3 0 0 0 0 0 0 10 42 42 42 29 32 39 39 32 16 19 26 26 26
26 23 16 19 19 10 6 6 3 0 0 0 0 0 0 0 0 0 0 0 0 0 0 0 3 0 0 0 0 0 6 6 26 32 23 29 32 32 29 26 23 16 13
23 19 23 19 13 6 6 3 3 0 0 0 0 0 0 0 0 0 0 0 0 0 0 0 0 0 0 0 0 0 0 0 0 16 23 26 26 23 29 23 13 6 13
16 19 23 19 10 10 6 6 3 3 3 3 0 0 0 0 0 0 0 0 0 0 0 0 0 0 0 0 0 0 0 0 0 0 0 6 16 16 16 13 13 10 10
10 19 19 13 3 3 3 0 0 0 0 0 0 0 0 0 0 0 0 0 0 0 0 0 0 0 0 0 0 0 0 0 0 0 0 0 0 3 3 3 16 10 13
6 10 10 13 6 3 6 0 0 0 0 0 0 0 0 0 0 0 0 0 0 0 0 0 0 0 0 0 0 0 0 0 0 0 0 0 0 0 0 0 0 0 0
6 6 10 13 6 6 6 0 0 0 0 0 0 0 0 0 0 0 0 0 0 0 0 0 0 0 0 0 0 0 0 0 0 0 0 0 0 0 0 0 0 0 0
6 6 6 10 10 6 3 0 0 0 0 0 0 0 0 0 0 0 0 0 0 0 0 0 0 0 0 0 0 0 0 0 0 0 0 0 0 0 0 0 0 0 0
6 6 6 10 6 6 3 0 0 0 0 0 0 0 0 0 0 0 0 0 0 0 0 0 0 0 0 0 0 0 0 0 0 0 0 0 0 0 0 0 0 0 0
6 3 6 6 6 6 3 0 0 0 0 3 0 0 0 0 0 0 0 0 0 0 0 0 0 0 0 0 0 0 0 0 0 0 0 0 0 0 0 0 0 0 0
3 3 3 6 6 6 6 3 0 0 0 3 3 0 0 0 0 0 0 0 0 0 0 0 0 0 0 0 0 0 0 0 0 0 0 0 0 0 0 0 0 0 0
3 3 3 6 6 6 6 3 0 0 0 0 3 0 0 0 0 0 0 0 0 0 0 0 0 0 0 0 0 0 0 0 0 0 0 0 0 0 0 0 0 0 0
3 0 0 0 3 3 3 3 0 0 0 0 0 0 0 0 0 0 0 0 0 0 0 0 0 0 0 0 0 0 0 0 0 0 0 0 0 0 0 0 0 0 0
3 0 0 0 0 0 0 0 0 0 0 0 0 0 0 0 0 0 0 0 0 0 0 0 0 0 0 0 0 0 0 0 0 0 0 0 0 0 0 0 0 0 0
6 0 0 0 0 0 0 0 0 0 0 0 0 0 0 0 0 0 0 0 0 0 0 0 0 0 0 0 0 0 0 0 0 0 0 0 0 0 0 0 0 0 0
6 3 0 0 0 0 0 0 0 0 0 0 0 0 0 0 0 0 0 0 0 0 0 0 0 0 0 0 0 0 0 0 0 0 0 0 0 0 0 0 0 0 0
6 3 3 0 0 0 0 0 0 0 0 0 0 0 0 0 0 0 0 0 0 0 0 0 0 0 0 0 0 0 0 0 0 0 0 0 0 0 0 0 0 0 0
6 3 3 0 0 0 0 0 0 0 0 0 0 0 0 0 0 0 0 0 0 0 0 0 0 0 0 0 0 0 0 0 0 0 0 0 0 0 0 0 0 0 0
Height
5888 5889 5889 5890 5890 5889 5889 5889 5889 5889 5889 5889 5889 5888 5888 5889 5888 5888 5888 5888 5888 5888 5888 5888 5888 5888 5887 5887 5887 5887 5887 5887 5888 5888 5888 5889 5889 5890 5890 5891 5891 5891 5891
5887 5888 5888 5889 5889 5889 5888 5888 5888 5888 5888 5888 5888 5888 5888 5888 5887 5888 5888 5888 5888 5887 5887 5887 5887 5887 5886 5886 5885 5885 5885 5886 5886 5886 5887 5887 5888 5888 5889 5889 5889 5890 5889
5885 5886 5887 5887 5888 5888 5888 5888 5888 5888 5888 5888 5888 5887 5887 5887 5887 5887 5887 5887 5887 5887 5886 5886 5886 5885 5885 5884 5884 5884 5884 5884 5884 5885 5885 5885 5886 5886 5887 5887 5887 5887 5887
5884 5885 5886 5886 5887 5887 5887 5887 5887 5887 5887 5887 5887 5887 5886 5886 5886 5886 5886 5886 5886 5886 5886 5885 5885 5884 5884 5883 5883 5883 5882 5883 5883 5883 5883 5884 5884 5884 5884 5884 5885 5885 5885
5882 5883 5884 5885 5886 5886 5887 5887 5887 5887 5887 5887 5886 5886 5886 5886 5886 5886 5886 5886 5885 5885 5885 5885 5884 5883 5883 5882 5882 5882 5881 5881 5881 5881 5882 5882 5882 5882 5882 5882 5882 5882 5882
5880 5882 5883 5884 5885 5885 5886 5886 5886 5886 5887 5886 5886 5886 5886 5886 5886 5885 5885 5885 5885 5885 5885 5884 5884 5883 5883 5882 5882 5881 5881 5881 5880 5880 5880 5880 5880 5880 5880 5879 5879 5879 5879
5878 5880 5882 5883 5884 5884 5885 5885 5886 5886 5886 5886 5886 5886 5886 5886 5886 5886 5885 5885 5885 5885 5885 5884 5884 5883 5883 5882 5882 5881 5881 5880 5880 5880 5879 5879 5878 5878 5877 5877 5877 5876 5876
5877 5878 5880 5881 5882 5883 5884 5884 5885 5886 5886 5886 5886 5886 5886 5887 5886 5886 5886 5886 5885 5885 5885 5884 5884 5883 5883 5882 5882 5881 5881 5880 5880 5879 5878 5878 5877 5876 5876 5875 5874 5874 5873
5874 5876 5878 5879 5880 5882 5883 5884 5884 5885 5885 5886 5886 5887 5887 5887 5887 5887 5886 5886 5885 5885 5885 5884 5884 5883 5883 5883 5882 5881 5881 5880 5879 5879 5878 5877 5876 5875 5874 5873 5872 5872 5871
5872 5873 5876 5877 5879 5880 5881 5882 5883 5884 5884 5885 5886 5886 5887 5887 5887 5887 5886 5886 5885 5885 5885 5884 5884 5883 5883 5883 5882 5881 5881 5880 5879 5878 5877 5876 5875 5874 5872 5871 5870 5869 5869
5869 5871 5873 5875 5877 5879 5880 5881 5882 5883 5884 5884 5885 5885 5886 5886 5886 5886 5886 5886 5886 5885 5885 5884 5884 5883 5883 5882 5881 5881 5880 5879 5878 5877 5876 5875 5874 5873 5871 5870 5869 5868 5867
5866 5868 5871 5873 5875 5877 5878 5880 5881 5882 5882 5883 5884 5885 5885 5885 5886 5886 5886 5885 5885 5885 5884 5884 5884 5883 5882 5882 5881 5880 5879 5878 5877 5876 5875 5874 5873 5871 5870 5869 5867 5866 5865
5864 5866 5868 5870 5872 5874 5876 5878 5879 5880 5881 5882 5883 5883 5884 5884 5884 5884 5885 5884 5884 5884 5884 5883 5883 5882 5881 5880 5880 5879 5878 5877 5876 5875 5874 5872 5871 5870 5868 5867 5866 5864 5863
5861 5863 5865 5868 5870 5872 5874 5876 5877 5878 5879 5880 5881 5882 5882 5882 5883 5883 5883 5883 5883 5883 5882 5882 5881 5881 5880 5879 5878 5877 5876 5875 5874 5873 5871 5870 5869 5867 5866 5865 5863 5862 5860
5857 5860 5862 5865 5867 5869 5871 5873 5875 5876 5877 5878 5879 5880 5880 5881 5881 5881 5882 5882 5882 5881 5881 5880 5879 5879 5878 5877 5876 5875 5874 5873 5871 5870 5869 5867 5866 5864 5863 5862 5860 5858 5857
5854 5857 5859 5862 5864 5867 5869 5871 5873 5874 5875 5876 5877 5878 5878 5879 5879 5879 5879 5879 5879 5879 5878 5878 5877 5876 5876 5875 5874 5873 5871 5870 5868 5867 5865 5864 5862 5861 5859 5858 5856 5854 5853
5851 5854 5856 5859 5861 5864 5866 5868 5870 5872 5873 5874 5875 5875 5876 5876 5876 5877 5877 5877 5876 5876 5876 5875 5874 5874 5873 5872 5870 5869 5868 5866 5865 5863 5862 5860 5858 5856 5855 5853 5851 5849 5848
5848 5850 5853 5856 5858 5861 5863 5865 5867 5869 5870 5871 5872 5873 5873 5873 5874 5874 5874 5873 5873 5872 5872 5872 5871 5870 5869 5868 5867 5865 5864 5862 5860 5858 5857 5855 5853 5851 5849 5847 5845 5843 5841
5845 5847 5849 5852 5855 5858 5860 5862 5864 5866 5867 5868 5869 5870 5870 5870 5870 5870 5870 5870 5869 5869 5868 5868 5867 5866 5865 5864 5862 5861 5859 5857 5855 5853 5851 5849 5847 5845 5843 5841 5839 5837 5835
5841 5844 5846 5849 5851 5854 5856 5858 5861 5862 5863 5865 5866 5866 5867 5867 5867 5867 5866 5866 5865 5864 5864 5863 5862 5861 5860 5859 5857 5855 5854 5851 5849 5847 5845 5843 5841 5838 5836 5834 5832 5829 5827
5838 5840 5843 5845 5848 5850 5852 5855 5857 5858 5859 5861 5862 5862 5863 5863 5863 5862 5862 5861 5860 5860 5859 5858 5856 5855 5854 5853 5851 5849 5847 5845 5842 5840 5838 5836 5833 5831 5828 5826 5823 5821 5818
5834 5837 5839 5841 5844 5846 5848 5851 5852 5854 5855 5856 5857 5858 5858 5858 5858 5857 5857 5856 5855 5854 5853 5852 5851 5849 5847 5846 5844 5842 5840 5838 5835 5833 5830 5828 5825 5823 5820 5817 5814 5811 5809
5831 5833 5835 5837 5839 5841 5844 5845 5847 5849 5850 5851 5852 5852 5853 5853 5852 5852 5851 5850 5849 5848 5847 5846 5844 5842 5840 5838 5836 5834 5832 5830 5827 5824 5822 5820 5816 5814 5811 5808 5805 5802 5799
5827 5829 5831 5833 5835 5837 5838 5840 5842 5844 5845 5846 5846 5847 5847 5847 5846 5845 5845 5844 5843 5842 5840 5839 5837 5835 5833 5830 5828 5826 5824 5821 5819 5815 5812 5811 5808 5805 5802 5798 5795 5791 5788
5823 5825 5826 5828 5830 5832 5833 5835 5837 5838 5839 5840 5840 5840 5840 5840 5839 5838 5838 5837 5835 5834 5832 5831 5829 5826 5824 5822 5819 5817 5814 5812 5809 5806 5802 5800 5797 5794 5791 5788 5783 5779 5775
5818 5820 5821 5823 5825 5827 5828 5830 5831 5832 5833 5833 5833 5833 5833 5832 5831 5831 5830 5829 5828 5826 5824 5822 5820 5818 5815 5812 5809 5807 5804 5802 5799 5797 5792 5788 5785 5782 5779 5776 5771 5766 5762
Wind_Speed
8 7 6 5 5 4 4 4 4 4 4 3 3 3 3 2 2 2 2 2 1 1 1 1 2 3 3 4 4 5 5 5 6 6 7 7 7 8 8 7 7 7 6
8 7 6 6 5 4 4 4 4 4 4 4 3 3 3 3 3 3 2 2 1 1 1 2 2 3 3 4 4 5 5 5 6 7 8 8 9 9 9 9 9 9 8
8 7 6 6 5 4 4 4 4 3 3 3 2 2 2 2 3 2 2 2 2 2 2 2 2 3 3 4 4 4 5 5 6 7 7 8 9 9 10 11 11 11 11
9 8 7 6 6 5 4 4 3 3 2 2 1 1 1 1 2 2 2 2 2 1 1 2 2 2 3 3 2 3 4 4 5 6 7 8 9 9 10 11 12 13 12
9 9 8 7 6 6 5 4 3 2 2 1 1 1 1 1 2 2 1 1 1 1 0 1 2 2 1 1 1 1 1 2 3 5 6 8 8 9 10 11 12 13 14
10 9 8 7 6 6 5 4 3 2 3 2 1 1 2 2 3 3 3 3 2 2 2 2 2 2 2 1 1 1 1 1 1 3 4 6 7 8 9 10 11 12 13
10 10 9 8 7 6 6 5 4 3 3 3 2 2 2 3 3 3 3 2 2 2 2 2 2 3 2 2 2 1 1 2 2 2 3 4 6 7 8 9 10 10 11
11 11 11 9 8 7 6 6 5 3 3 4 4 3 2 3 3 2 2 2 2 2 2 2 2 2 2 2 2 2 2 2 2 3 3 4 4 5 6 7 8 9 10
13 12 12 10 9 8 7 7 6 4 5 5 5 3 3 2 2 2 2 2 2 2 1 1 1 2 2 2 2 2 2 3 3 3 3 4 5 5 6 7 8 9 9
13 13 13 11 10 9 9 8 7 6 6 6 6 5 3 3 2 2 2 2 2 2 1 1 2 2 1 1 2 2 2 3 3 3 4 4 5 5 6 6 7 8 8
14 14 14 12 12 11 10 9 8 7 7 7 6 5 4 3 3 2 2 1 1 1 1 1 1 1 1 1 2 2 3 3 4 4 4 5 5 6 6 6 6 7 8
15 15 15 14 13 12 11 10 9 8 8 7 6 5 4 3 3 3 2 2 2 1 1 1 1 1 1 2 2 3 3 4 5 5 5 5 6 6 7 7 7 8 8
16 16 16 15 14 14 13 11 10 9 8 7 6 5 4 4 3 3 3 3 2 2 1 1 2 2 3 3 4 4 5 5 6 6 7 7 8 8 9 9 9 10 10
17 17 17 16 15 15 14 12 11 10 9 8 7 6 5 4 4 3 3 3 3 3 3 3 3 4 4 5 5 6 6 7 7 8 9 9 9 10 10 11 11 12 12
18 18 18 17 17 16 15 13 12 11 10 8 8 7 6 5 5 4 4 4 4 4 4 4 5 5 6 7 8 8 8 9 9 10 10 11 11 12 12 13 13 14 14
19 19 19 19 18 17 16 14 13 12 10 9 8 8 7 7 6 6 6 6 6 6 6 6 7 8 8 9 10 10 11 11 12 13 13 13 14 14 15 16 16 17 17
19 19 19 20 19 18 17 15 15 13 12 10 9 8 8 8 7 7 8 8 8 8 8 8 9 10 10 11 11 12 13 14 14 15 15 16 17 17 18 19 19 20 20
20 19 20 20 20 20 18 17 16 14 13 11 10 9 9 9 8 8 9 9 10 10 10 10 11 12 13 14 14 15 16 16 17 18 18 19 19 20 21 22 22 23 23
20 20 20 21 21 20 20 18 17 15 14 13 12 11 11 10 10 10 10 11 12 12 13 13 14 14 15 16 17 18 18 19 20 21 22 22 23 23 24 25 25 26 26
21 20 21 21 21 21 20 20 18 17 16 15 14 14 13 13 13 13 13 14 14 15 15 16 17 17 18 19 19 20 21 22 23 24 24 25 26 26 27 27 28 29 30
21 21 21 21 21 21 21 20 19 19 17 17 16 16 16 16 16 16 16 17 17 17 18 18 19 20 21 22 23 24 24 25 26 27 27 28 28 29 29 30 31 32 33
21 22 22 22 22 22 22 22 21 20 19 19 19 19 18 18 19 19 19 19 19 20 21 21 22 23 24 25 26 26 26 27 28 29 30 30 31 31 32 33 34 35 35
21 22 23 23 23 23 24 24 23 22 21 21 21 21 21 22 21 22 22 22 22 23 23 24 25 26 26 27 28 28 29 29 30 31 31 32 33 33 34 36 37 38 39
20 22 23 23 23 23 23 23 23 23 23 23 24 24 24 24 24 24 25 25 25 26 26 26 27 28 29 30 30 31 31 32 32 33 34 33 35 35 36 38 39 40 41
21 22 23 23 24 23 23 23 23 24 24 25 25 25 25 26 26 26 27 27 27 28 28 29 30 31 31 32 33 33 34 35 35 36 37 38 37 38 39 40 42 43 44
22 23 23 24 24 24 24 25 25 25 25 26 26 26 26 27 28 29 29 29 30 31 31 32 33 33 34 34 35 36 36 37 38 38 39 41 41 42 42 43 44 46 47
Wind_Direction
245 247 252 255 268 272 270 273 281 286 293 293 279 273 271 268 266 261 254 252 242 225 256 284 287 291 286 276 266 263 261 254 246 244 244 246 245 246 248 251 256 259 261
240 240 247 254 255 260 254 262 276 284 283 278 269 268 271 268 253 250 245 247 258 274 292 298 292 290 294 282 271 265 267 255 251 249 248 249 251 251 252 255 257 262 265
231 232 236 240 251 246 244 256 265 276 284 274 265 261 267 265 252 251 243 247 264 274 285 291 295 293 292 287 285 275 264 257 250 252 251 250 254 255 254 256 259 262 264
226 226 226 233 237 235 239 247 257 266 279 269 253 214 224 240 222 231 238 238 246 251 278 301 309 299 293 282 286 281 265 257 256 255 256 254 257 258 257 258 260 261 262
221 222 223 224 229 233 236 238 249 245 236 221 173 133 145 154 147 158 152 160 166 161 39 5 6 357 331 292 275 292 291 267 263 261 261 256 257 261 263 262 261 261 262
218 218 216 218 221 226 228 224 221 216 207 192 152 122 120 129 125 116 107 108 109 115 95 65 46 49 50 58 41 22 10 355 294 277 271 264 264 266 269 268 266 265 266
217 217 218 216 219 220 217 210 201 198 197 186 159 129 123 127 120 109 105 97 105 124 112 83 68 74 74 65 60 44 38 15 352 325 306 290 285 283 277 276 275 271 270
216 218 213 213 216 216 209 200 193 191 185 177 170 154 144 131 120 106 104 88 98 100 104 84 92 83 74 74 68 55 41 22 6 350 331 317 308 300 290 287 284 282 281
213 213 212 210 208 205 203 201 198 191 178 172 172 172 161 151 133 116 101 95 93 101 100 110 103 79 73 71 60 42 31 24 9 359 352 341 330 318 303 293 289 288 288
212 209 210 210 208 206 204 203 198 190 183 175 173 173 164 157 142 128 118 113 113 115 110 103 95 83 72 57 38 29 15 4 356 352 346 341 336 329 320 307 297 291 291
211 209 210 212 211 209 207 204 200 195 192 185 182 181 178 175 167 155 154 146 141 139 129 125 108 77 29 359 357 352 344 342 341 336 331 328 327 326 323 319 310 300 293
211 209 210 212 211 210 208 206 202 202 200 194 195 195 193 195 198 191 182 176 179 171 168 188 235 292 322 328 329 330 328 327 328 327 324 320 318 315 314 313 311 307 300
210 210 209 210 209 209 207 208 205 208 205 205 209 213 215 214 208 205 204 209 218 226 232 251 266 293 310 313 313 312 309 310 313 315 314 311 308 307 305 304 304 304 303
212 211 210 209 209 210 211 209 210 210 210 214 219 224 227 220 219 222 227 235 244 251 260 270 279 289 295 300 304 305 303 302 304 305 305 304 303 303 303 301 300 300 299
213 212 212 212 210 211 210 211 214 212 214 221 225 228 228 231 236 240 242 244 253 264 270 274 281 290 294 296 298 300 302 303 303 302 301 301 300 298 298 298 297 296 296
212 213 213 211 210 210 211 212 213 214 218 223 227 231 234 238 244 250 254 257 262 267 270 275 283 291 295 296 298 299 302 302 301 301 301 300 298 297 296 295 295 294 292
213 213 212 212 212 212 213 214 216 217 221 226 231 235 239 244 251 256 260 266 270 273 274 276 282 288 292 295 297 299 299 299 300 300 300 299 298 297 296 294 293 292 290
213 213 212 214 214 214 216 217 220 221 224 229 233 238 245 250 255 259 266 271 276 276 275 278 282 285 288 291 293 295 297 297 297 299 299 298 297 296 295 294 292 291 290
214 214 214 214 215 216 217 219 221 223 228 233 238 243 250 254 258 263 268 271 276 277 277 278 281 284 287 290 292 295 296 296 297 297 298 298 297 295 293 292 291 290 290
215 216 215 215 215 216 218 222 225 229 233 238 241 247 253 257 261 266 271 274 276 278 278 280 282 285 288 290 292 294 294 295 295 295 296 296 295 294 293 291 290 290 290
216 216 216 217 218 219 221 225 229 233 236 240 245 250 256 261 264 269 273 276 278 279 280 282 284 286 288 290 292 293 293 293 293 294 294 294 293 292 292 292 291 291 291
217 218 219 220 222 224 227 230 233 236 240 244 249 254 258 263 267 270 273 276 279 279 280 281 283 286 289 291 293 293 292 292 292 292 292 292 292 291 291 292 291 291 291
221 222 224 225 227 228 231 234 237 239 242 247 253 258 261 264 267 270 272 274 277 278 280 282 284 287 289 291 292 292 292 292 293 292 291 291 291 291 292 292 292 291 291
224 224 225 228 230 232 234 236 239 241 245 251 256 260 263 266 269 271 272 275 277 280 282 283 285 287 288 290 290 291 291 292 292 291 290 290 291 291 292 292 292 291 291
227 228 230 231 233 235 236 239 243 246 249 252 256 261 264 266 270 273 275 276 278 279 281 283 285 286 288 289 289 290 291 290 291 291 291 291 291 291 291 291 291 291 291
233 234 234 236 237 238 240 244 247 250 253 256 259 264 266 267 271 274 276 277 278 280 282 284 286 287 288 288 289 289 289 290 290 290 291 291 292 292 292 292 292 292 291